DW5499 Weather Reports


time (UTC)temp
F
wind
direction
speed
knots
gust
knots
rain 1hr
in
rain 24hr
in
rain mn
in
humidity
%
barometer
mb
20260902173012 94 155 3.5 13.0 0.00 0.00 0.00 50 1013.3
20260902171512 93 155 5.2 12.2 0.00 0.00 0.00 51 1013.4
20260902170009 92 225 8.7 15.6 0.00 0.00 0.00 52 1013.6
20260902164507 93 195 4.3 13.9 0.00 0.00 0.00 52 1013.6
20260902163004 91 214 7.8 12.2 0.00 0.00 0.00 53 1013.8
20260902161503 90 178 6.1 12.2 0.00 0.00 0.00 55 1013.7
20260902160110 89 131 3.5 11.3 0.00 0.00 0.00 57 1013.7
20260902154600 88 198 7.0 12.2 0.00 0.00 0.00 57 1013.7
20260902153054 87 180 3.5 12.2 0.00 0.00 0.00 60 1013.7
20260902151553 85 206 8.7 14.8 0.00 0.00 0.00 61 1013.6
20260902150049 84 222 7.0 12.2 0.00 0.00 0.00 62 1013.7
20260902144553 84 193 4.3 15.6 0.00 0.00 0.00 62 1013.7
20260902143046 83 163 7.0 13.9 0.00 0.00 0.00 62 1013.8
20260902141548 83 162 5.2 10.4 0.00 0.00 0.00 63 1014.0
20260902140046 83 162 5.2 8.7 0.00 0.00 0.00 63 1013.9
20260902134548 81 131 5.2 11.3 0.00 0.00 0.00 66 1013.9
20260902133044 80 158 6.1 11.3 0.00 0.00 0.00 66 1013.9
20260902131603 80 199 4.3 9.6 0.00 0.00 0.00 67 1013.9
20260902130052 79 156 3.5 8.7 0.00 0.00 0.00 68 1013.7
20260902124541 78 153 2.6 6.1 0.00 0.00 0.00 70 1013.7
20260902123041 75 182 0.9 5.2 0.00 0.00 0.00 76 1013.8
20260902121545 75 87 0.0 1.7 0.00 0.00 0.00 76 1013.5
20260902120037 76 86 0.0 2.6 0.00 0.00 0.00 74 1013.5
20260902114535 77 82 0.0 2.6 0.00 0.00 0.00 72 1013.4
20260902113034 77 133 0.9 4.3 0.00 0.00 0.00 69 1013.2
20260902111537 77 151 0.9 3.5 0.00 0.00 0.00 70 1013.3
20260902110043 77 147 0.9 2.6 0.00 0.00 0.00 70 1013.2
20260902104539 76 205 0.9 2.6 0.00 0.00 0.00 74 1013.3
20260902103034 76 126 0.0 0.9 0.00 0.00 0.00 75 1013.2
20260902101527 77 110 0.0 2.6 0.00 0.00 0.00 72 1013.1
20260902100027 78 148 0.0 2.6 0.00 0.00 0.00 68 1013.1
20260902094526 78 158 0.9 3.5 0.00 0.00 0.00 67 1013.0
20260902093035 77 127 0.0 2.6 0.00 0.00 0.00 72 1012.8
20260902091521 78 124 0.9 1.7 0.00 0.00 0.00 70 1012.7
20260902090018 80 101 0.9 4.3 0.00 0.00 0.00 64 1012.7
20260902084514 80 154 1.7 3.5 0.00 0.00 0.00 62 1012.6
20260902083012 81 170 1.7 7.0 0.00 0.00 0.00 60 1012.4
20260902081512 81 146 2.6 7.0 0.00 0.00 0.00 59 1012.3
20260902080018 82 161 2.6 7.8 0.00 0.00 0.00 59 1012.3
20260902074513 81 143 2.6 6.1 0.00 0.00 0.00 59 1012.3
20260902073024 81 189 1.7 6.1 0.00 0.00 0.00 60 1012.4
20260902071512 81 164 0.9 2.6 0.00 0.00 0.00 60 1012.3
20260902070009 81 184 0.9 4.3 0.00 0.00 0.00 59 1012.3
20260902064507 81 164 0.9 3.5 0.00 0.00 0.00 60 1012.5
20260902063012 81 158 0.9 2.6 0.00 0.00 0.00 61 1012.5
20260902061504 82 146 0.9 2.6 0.00 0.00 0.00 60 1012.6
20260902060127 83 159 0.0 3.5 0.00 0.00 0.00 58 1012.5
20260902054559 83 155 0.9 4.3 0.00 0.00 0.00 56 1012.5
20260902053058 83 158 1.7 3.5 0.00 0.00 0.00 56 1012.4
20260902051556 83 179 1.7 4.3 0.00 0.00 0.00 55 1012.5
20260902050054 83 179 2.6 5.2 0.00 0.00 0.00 55 1012.4
20260902044554 83 170 1.7 5.2 0.00 0.00 0.00 55 1012.3
20260902043055 84 185 0.9 5.2 0.00 0.00 0.00 55 1012.2
20260902041607 85 189 2.6 5.2 0.00 0.00 0.00 54 1012.2
20260902040053 86 168 2.6 5.2 0.00 0.00 0.00 53 1012.3
20260902034554 86 156 1.7 4.3 0.00 0.00 0.00 53 1012.3
20260902033056 86 203 1.7 4.3 0.00 0.00 0.00 53 1012.2
20260902031551 88 205 2.6 5.2 0.00 0.00 0.00 50 1012.1
20260902030051 89 193 2.6 5.2 0.00 0.00 0.00 49 1011.9
20260902024550 89 147 1.7 5.2 0.00 0.00 0.00 49 1011.8
20260902023050 90 176 2.6 6.1 0.00 0.00 0.00 49 1011.8
20260902021552 90 167 3.5 7.0 0.00 0.00 0.00 48 1011.6
20260902020049 91 170 1.7 5.2 0.00 0.00 0.00 48 1011.6
20260902014552 92 191 0.9 3.5 0.00 0.00 0.00 48 1011.4
20260902013048 92 166 1.7 5.2 0.00 0.00 0.00 46 1011.3
20260902011547 92 182 2.6 5.2 0.00 0.00 0.00 46 1011.2
20260902010047 93 176 0.9 4.3 0.00 0.00 0.00 45 1011.1
20260902004547 94 176 0.9 5.2 0.00 0.00 0.00 43 1011.3
20260902003053 96 158 1.7 6.1 0.00 0.00 0.00 42 1011.2
20260902001544 97 185 2.6 5.2 0.00 0.00 0.00 40 1011.4
20260902000056 98 117 1.7 6.1 0.00 0.00 0.00 39 1011.5
20260901234542 98 149 1.7 5.2 0.00 0.00 0.00 38 1011.5
20260901233042 99 137 1.7 5.2 0.00 0.00 0.00 37 1011.5
20260901231548 99 197 2.6 8.7 0.00 0.00 0.00 37 1011.5
20260901230042 99 189 4.3 9.6 0.00 0.00 0.00 36 1011.6
20260901224541 99 189 4.3 10.4 0.00 0.00 0.00 34 1011.6
20260901223040 99 218 5.2 12.2 0.00 0.00 0.00 34 1011.6
20260901221540 100 208 3.5 12.2 0.00 0.00 0.00 34 1011.6
20260901220106 100 205 4.3 13.0 0.00 0.00 0.00 34 1011.6
20260901214538 99 155 6.1 15.6 0.00 0.00 0.00 35 1011.6
20260901213101 100 201 7.8 13.9 0.00 0.00 0.00 34 1011.8
20260901211535 100 165 6.1 14.8 0.00 0.00 0.00 34 1012.0
20260901210035 100 182 8.7 15.6 0.00 0.00 0.00 32 1012.1
20260901204537 100 133 7.0 14.8 0.00 0.00 0.00 33 1012.3
20260901203047 100 184 4.3 13.0 0.00 0.00 0.00 34 1012.4
20260901201528 100 181 6.1 12.2 0.00 0.00 0.00 34 1012.6
20260901200031 99 205 7.0 14.8 0.00 0.00 0.00 36 1012.7
20260901194521 98 195 6.1 14.8 0.00 0.00 0.00 38 1012.9
20260901193022 97 164 7.8 17.4 0.00 0.00 0.00 38 1013.0
20260901191520 98 174 4.3 13.9 0.00 0.00 0.00 38 1013.1
20260901190019 97 146 5.2 10.4 0.00 0.00 0.00 40 1013.2
20260901184526 98 214 7.0 14.8 0.00 0.00 0.00 40 1013.3
20260901183015 97 220 3.5 9.6 0.00 0.00 0.00 43 1013.5
20260901181512 95 207 6.1 13.9 0.00 0.00 0.00 44 1013.7
20260901180011 94 197 7.0 13.0 0.00 0.00 0.00 45 1014.0
20260901174510 94 187 8.7 15.6 0.00 0.00 0.00 46 1014.1